Location: Arrien
(43.3167°N, 0.1500°W)
Time: 03:54:56
(UTC+00:00)

Cosmos 2263 Rocket - Pass Details

Date: 15 October 2021
Orbit: 825 x 847 km, 71.0° (Epoch: 02 December)

Event Time Altitude Azimuth Distance (km) Brightness Sun altitude
Rises 19:19:44 0° 335° (NNW) 3,374 5.8 -23.0°
Reaches altitude 10° 19:22:11 10° 336° (NNW) 2,435 5.0 -23.4°
Maximum altitude 19:27:46 83° 64° (ENE) 836 2.0 -24.4°
Enters shadow 19:28:58 57° 145° (SE) 966 2.2 -24.6°
